Track STARLINK-1698 now! 10-day predictions STARLINK-1698 is classified as:
1 46547U 20070R 22185.89623112 -.00003713 00000-0 -23056-3 0 9990 2 46547 53.0541 89.1325 0001693 58.1850 301.9304 15.06385667 96967